DW9996 Weather Reports


Display with metric or nautical units.
time (UTC)temp
F
wind
direction
speed
MPH
gust
MPH
rain 1hr
in
rain 24hr
in
rain mn
in
humidity
%
barometer
mb
20260904161532 66 275 0.0 3.0 0.00 0.00 0.00 46 1003.6
20260904160019 65 19 1.0 5.0 0.00 0.00 0.00 46 1003.2
20260904154515 64 41 3.0 6.0 0.00 0.00 0.00 48 1002.8
20260904153017 62 76 2.0 8.0 0.00 0.00 0.00 49 1002.9
20260904151508 62 37 4.0 9.0 0.00 0.00 0.00 50 1002.7
20260904150015 61 29 6.0 8.0 0.00 0.00 0.00 51 1002.7
20260904144501 59 65 1.0 7.0 0.00 0.00 0.00 55 1002.8
20260904143100 56 331 1.0 4.0 0.00 0.00 0.00 65 1003.0
20260904141600 55 321 2.0 4.0 0.00 0.00 0.00 67 1003.2
20260904140058 55 326 2.0 6.0 0.00 0.00 0.00 66 1003.3
20260904134601 54 302 0.0 2.0 0.00 0.00 0.00 66 1003.1
20260904133056 54 312 1.0 4.0 0.00 0.00 0.00 62 1002.9
20260904131621 55 325 2.0 3.0 0.00 0.00 0.00 60 1002.9
20260904130054 54 331 2.0 4.0 0.00 0.00 0.00 61 1002.7
20260904124553 54 340 1.0 3.0 0.00 0.00 0.00 61 1002.7
20260904123057 55 318 1.0 4.0 0.00 0.00 0.00 59 1002.8
20260904121553 54 33 3.0 5.0 0.00 0.00 0.00 61 1002.7
20260904120053 53 22 1.0 3.0 0.00 0.00 0.00 63 1002.8
20260904114552 53 339 1.0 3.0 0.00 0.00 0.00 63 1002.9
20260904113047 52 327 1.0 3.0 0.00 0.00 0.00 64 1003.0
20260904111546 52 328 0.0 3.0 0.00 0.00 0.00 63 1003.1
20260904110042 53 336 1.0 3.0 0.00 0.00 0.00 62 1003.4
20260904104540 54 351 2.0 5.0 0.00 0.00 0.00 59 1003.6
20260904103050 55 316 2.0 5.0 0.00 0.00 0.00 57 1003.7
20260904101539 56 9 2.0 5.0 0.00 0.00 0.00 56 1003.8
20260904100038 56 330 2.0 6.0 0.00 0.00 0.00 54 1003.8
20260904094539 56 343 3.0 6.0 0.00 0.00 0.00 55 1003.7
20260904093034 55 342 3.0 6.0 0.00 0.00 0.00 56 1003.8
20260904091534 55 5 4.0 7.0 0.00 0.00 0.00 57 1003.8
20260904090033 54 28 3.0 6.0 0.00 0.00 0.00 57 1004.1
20260904084529 53 360 2.0 5.0 0.00 0.00 0.00 58 1004.3
20260904083032 54 331 2.0 4.0 0.00 0.00 0.00 57 1004.7
20260904081523 54 348 3.0 5.0 0.00 0.00 0.00 56 1004.9
20260904080019 56 17 4.0 7.0 0.00 0.00 0.00 54 1005.2
20260904074534 56 360 2.0 5.0 0.00 0.00 0.00 54 1005.1
20260904073020 56 82 2.0 5.0 0.00 0.00 0.00 53 1005.3
20260904071513 58 49 2.0 7.0 0.00 0.00 0.00 51 1005.4
20260904070012 58 355 4.0 7.0 0.00 0.00 0.00 51 1005.3
20260904064516 59 360 3.0 7.0 0.00 0.00 0.00 51 1005.4
20260904063009 59 21 2.0 5.0 0.00 0.00 0.00 52 1005.5
20260904061506 58 19 2.0 4.0 0.00 0.00 0.00 53 1005.6
20260904060002 57 309 0.0 2.0 0.00 0.00 0.00 55 1005.7
20260904054503 57 302 0.0 2.0 0.00 0.00 0.00 55 1005.6
20260904053001 57 302 0.0 3.0 0.00 0.00 0.00 54 1005.6
20260904051616 58 306 1.0 3.0 0.00 0.00 0.00 52 1005.6
20260904044609 60 311 1.0 6.0 0.00 0.00 0.00 48 1005.8
20260904043101 61 344 2.0 7.0 0.00 0.00 0.00 46 1005.9
20260904041607 62 12 4.0 8.0 0.00 0.00 0.00 45 1005.9
20260904040109 62 17 4.0 8.0 0.00 0.00 0.00 44 1005.9
20260904034608 62 317 3.0 8.0 0.00 0.00 0.00 44 1005.9
20260904033102 62 336 3.0 6.0 0.00 0.00 0.00 45 1005.9
20260904031555 62 347 2.0 5.0 0.00 0.00 0.00 45 1005.8
20260904030055 63 350 4.0 8.0 0.00 0.00 0.00 44 1005.7
20260904024553 62 5 5.0 8.0 0.00 0.00 0.00 45 1005.5
20260904023053 63 350 4.0 7.0 0.00 0.00 0.00 44 1005.4
20260904021549 64 341 3.0 7.0 0.00 0.00 0.00 42 1005.3
20260904020051 66 323 2.0 7.0 0.00 0.00 0.00 40 1005.1
20260904014622 68 360 3.0 8.0 0.00 0.00 0.00 39 1005.0
20260904013049 70 338 2.0 4.0 0.00 0.00 0.00 37 1005.0
20260904011545 72 321 2.0 6.0 0.00 0.00 0.00 35 1004.8
20260904010050 74 309 2.0 8.0 0.00 0.00 0.00 34 1004.8
20260904004543 74 298 3.0 7.0 0.00 0.00 0.00 33 1004.8
20260904003046 75 314 2.0 8.0 0.00 0.00 0.00 33 1004.6
20260904001546 75 289 4.0 12.0 0.00 0.00 0.00 32 1004.4
20260904000040 76 282 4.0 11.0 0.00 0.00 0.00 31 1004.5
20260903234507 77 298 7.0 15.0 0.00 0.00 0.00 29 1004.3
20260903233005 77 267 9.0 16.0 0.00 0.00 0.00 26 1004.0
20260903231506 78 257 5.0 15.0 0.00 0.00 0.00 27 1004.0
20260903230010 76 240 5.0 15.0 0.00 0.00 0.00 28 1004.0
20260903224504 76 288 6.0 13.0 0.00 0.00 0.00 29 1003.9
20260903223003 79 279 5.0 19.0 0.00 0.00 0.00 26 1003.8
20260903221504 77 249 7.0 19.0 0.00 0.00 0.00 28 1003.6
20260903220003 79 291 6.0 20.0 0.00 0.00 0.00 26 1003.6
20260903214501 78 241 8.0 21.0 0.00 0.00 0.00 26 1003.6
20260903213001 78 237 10.0 23.0 0.00 0.00 0.00 27 1003.6
20260903211501 78 267 6.0 15.0 0.00 0.00 0.00 27 1003.5
20260903204558 76 247 6.0 14.0 0.00 0.00 0.00 29 1003.6
20260903203106 76 242 7.0 16.0 0.00 0.00 0.00 29 1003.7
20260903201556 77 225 14.0 21.0 0.00 0.00 0.00 28 1003.6
20260903200055 77 194 12.0 18.0 0.00 0.00 0.00 28 1003.7
20260903194556 76 234 10.0 18.0 0.00 0.00 0.00 29 1003.7
20260903193052 76 259 7.0 19.0 0.00 0.00 0.00 30 1003.8
20260903191551 75 208 7.0 20.0 0.00 0.00 0.00 30 1003.8
20260903190051 76 288 6.0 18.0 0.00 0.00 0.00 30 1003.7
20260903184549 75 215 12.0 21.0 0.00 0.00 0.00 30 1003.7
20260903183047 73 224 10.0 19.0 0.00 0.00 0.00 35 1003.7
20260903181542 72 252 6.0 13.0 0.00 0.00 0.00 39 1003.8
20260903180047 71 200 10.0 15.0 0.00 0.00 0.00 40 1004.0
20260903174537 69 229 7.0 13.0 0.00 0.00 0.00 44 1004.1
20260903173033 68 240 6.0 13.0 0.00 0.00 0.00 46 1004.3
20260903171537 66 212 7.0 14.0 0.00 0.00 0.00 47 1004.2
20260903170036 65 248 8.0 15.0 0.00 0.00 0.00 48 1004.1
20260903164524 63 237 10.0 16.0 0.00 0.00 0.00 51 1004.0
20260903163024 61 194 8.0 15.0 0.00 0.00 0.00 56 1004.0